Flag for Germany Weather past 2 weeks in Bad Oldesloe, Schleswig-Holstein, Germany

Now
34 °F

Scattered clouds.


Feels Like: 30 °F
Forecast: 31 / 38 °F
Wind: 5 mph from Northwest

Location: Luebeck-Blankensee

Current Time: Dec 29, 2014 at 1:28:31 PM

Latest Report: Dec 29, 2014 at 12:50 PM


Visibility: N/A

Pressure: 30.45 "Hg

Humidity: 81%

Dew point: 28 °F

Location of Bad OldesloeLocation

Historic Weather in Bad Oldesloe — Graph

°F

Bad Oldesloe temperature yesterday

Maximum temperature yesterday: 34 °F (at 11:50 AM)
Minimum temperature yesterday: 23 °F (at 6:50 AM)
Average temperature yesterday: 30 °F

Past Weeks' High & Low Weather Summary

 TemperatureHumidityPressure
High54 °F (Dec 18, 8:50 PM)100% (Dec 17, 4:50 PM)30.45 "Hg (Dec 17, 4:50 PM)
Low23 °F (Dec 27, 8:50 PM)69% (Dec 27, 12:20 PM)29.53 "Hg (Dec 17, 2:20 PM)
Average41 °F89%29.81 "Hg
* Reported Dec 14 12:20 PM — Dec 29 12:20 PM, Bad Oldesloe, Weather by CustomWeather, © 2014

Note: Actual official high and low records may vary slightly from our data, if they occured in-between our weather recording intervals... More about our weather records

Advertising

Bad Oldesloe weather history for previous 24 hours

 ConditionsComfort  
Time TempWeatherWind HumidityBarometerVisibility
12:20 PM
Dec 29
34 °FScattered clouds.5 mph75%30.45 "HgN/A
11:50 AM34 °FScattered clouds.6 mph75%30.42 "HgN/A
11:20 AM32 °FScattered clouds.6 mph80%30.42 "HgN/A
10:50 AM32 °FPartly sunny.2 mph80%30.42 "HgN/A
10:20 AM32 °FScattered clouds.3 mph80%30.39 "HgN/A
9:50 AM32 °FPartly sunny.8 mph80%30.36 "HgN/A
9:20 AM32 °FPartly sunny.13 mph87%30.36 "HgN/A
8:50 AM30 °FPartly sunny.13 mph93%30.33 "HgN/A
8:20 AM30 °FPartly cloudy.13 mph93%30.33 "HgN/A
7:50 AM32 °FPassing clouds.15 mph87%30.30 "HgN/A
7:20 AM32 °FPassing clouds.13 mph93%30.27 "HgN/A
6:50 AM34 °FPassing clouds.7 mph87%30.24 "HgN/A
9:50 PM
Dec 28
28 °FPassing clouds.7 mph93%30.27 "HgN/A
9:20 PM28 °FPartly cloudy.7 mph86%30.30 "HgN/A
8:50 PM27 °FClear.6 mph93%30.30 "Hg10 mi
8:20 PM25 °FClear.6 mph100%30.33 "Hg10 mi
7:50 PM27 °FClear.5 mph86%30.33 "Hg10 mi
7:20 PM27 °FClear.3 mph93%30.33 "Hg10 mi
6:50 PM28 °FClear.3 mph86%30.33 "Hg10 mi
6:20 PM28 °FPassing clouds.5 mph86%30.33 "HgN/A
5:50 PM28 °FClear.5 mph93%30.33 "Hg10 mi
5:20 PM28 °FClear.5 mph93%30.33 "Hg10 mi
4:50 PM30 °FPassing clouds.5 mph86%30.33 "HgN/A
4:20 PM30 °FPassing clouds.6 mph86%30.33 "HgN/A
3:50 PM32 °FScattered clouds.5 mph80%30.33 "HgN/A
3:20 PM32 °FPassing clouds.3 mph80%30.33 "HgN/A
2:50 PM34 °FPassing clouds.3 mph75%30.30 "HgN/A
2:20 PM34 °FPassing clouds.5 mph81%30.30 "HgN/A
1:50 PM34 °FPassing clouds.5 mph75%30.30 "HgN/A
1:20 PM34 °FPassing clouds.3 mph75%30.30 "HgN/A
Weather by CustomWeather, © 2014

See weather overviewHow to use our weather pages